Content
SEND FEEDBACK

Daily
Averages
Monthly
Summary
Iran

MASHHAD, IRAN


Home > Middle East > Iran
Elevation: 3214 feet     Latitude: 36 16N     Longitude: 059 38E

WEATHER
 
SELECT A DAY
Number of Records: 200,227;   Date Range: 2/9/98 - 7/30/14
 
SHARE

PRINT THIS DATA

[ ← Previous Day ]
WEATHER ALMANAC - JANUARY 12, 2014
[ Next Day → ]
[ °C ]   °F
Weather ElementAverageHighLow
Temperature43 °F51.8 °F (1:30 pm)35.6 °F (2:30 am)
Dewpoint23.4 °F30.2 °F (9:00 am)17.6 °F (3:30 am)
Humidity44.7 %61 % (8:30 am)21 % (3:30 pm)
Barometer30.06 in30.22 in (9:30 pm)29.95 in (1:00 am)
Wind Speed10.8 mph18.4 mph (2:20 pm)
Weather ElementAverage
Visibility5.9 mi
Wind DirectionWSW (254.5 °)

Weather ElementTotal
Precipitation---
Heating Degree Days21.3 (Base 65)
Averaged from 59 records on January 12, 2014
WEATHER CONDITIONS BREAKOUT
WIND DIRECTION BREAKOUT
WEATHER BY HOUR - JANUARY 12, 2014
[ °C ]   °F
Local TimeTemperatureDewpointHumidityBarometerVisibilityWind DirectionWind SpeedGust SpeedPrecipitationEventsConditions
12:30 AM38.0 °F19.0 °F32 %30.02 in4.0 miCalmHaze
12:30 AM39.2 °F19.4 °F45 %29.98 in4.3 miCalmMostly Cloudy
1:00 AM37.4 °F19.4 °F48 %29.95 in4.3 miCalmScattered Clouds
1:30 AM39.2 °F19.4 °F45 %29.95 in5.0 miENE (70°)4.6 mphMostly Cloudy
2:00 AM37.4 °F19.4 °F48 %29.95 in5.0 miCalmMostly Cloudy
2:30 AM35.6 °F19.4 °F52 %29.98 in5.0 miNorth (350°)4.6 mphMostly Cloudy
2:55 AM37.4 °F19.4 °F48 %29.98 in5.0 miSouth (170°)6.9 mphScattered Clouds
3:30 AM37.4 °F17.6 °F45 %29.95 in5.0 miSSE (150°)6.9 mphScattered Clouds
3:30 AM38.0 °F18.0 °F30 %29.99 in5.0 miSSE (150°)6.7 mphHaze
4:00 AM37.4 °F19.4 °F48 %29.95 in5.0 miSouth (180°)4.6 mphScattered Clouds
4:30 AM39.2 °F19.4 °F45 %29.95 in5.0 miWest (280°)4.6 mphScattered Clouds
5:00 AM42.8 °F17.6 °F36 %29.98 in6.2 miWest (260°)13.8 mphScattered Clouds
5:30 AM42.8 °F19.4 °F39 %29.98 in6.2 miWest (280°)9.2 mphScattered Clouds
6:00 AM42.8 °F21.2 °F42 %29.98 in6.2 miWNW (290°)11.5 mphMostly Cloudy
6:30 AM42.8 °F21.2 °F42 %30.01 in6.2 miWest (280°)9.2 mphOvercast
6:30 AM43.0 °F21.0 °F28 %30.05 in6.0 miWest (280°)8.9 mphOvercast
7:00 AM42.8 °F23.0 °F46 %30.04 in6.2 miWNW (300°)16.1 mphOvercast
7:20 AM42.8 °F24.8 °F49 %30.04 in6.2 miNW (310°)16.1 mphMostly Cloudy
7:30 AM42.8 °F24.8 °F49 %30.04 in6.2 miNW (310°)16.1 mphMostly Cloudy
7:55 AM42.8 °F24.8 °F49 %30.06 in6.2 miWNW (300°)16.1 mphMostly Cloudy
8:30 AM41.0 °F28.4 °F61 %30.06 in6.2 miWNW (300°)16.1 mphMostly Cloudy
9:00 AM42.8 °F30.2 °F61 %30.06 in6.2 miWNW (300°)16.1 mphMostly Cloudy
9:20 AM44.6 °F30.2 °F57 %30.09 in6.2 miWNW (300°)16.1 mphScattered Clouds
9:30 AM44.0 °F29.0 °F44 %30.14 in6.0 miWNW (300°)15.7 mphPartly Cloudy
9:30 AM44.6 °F30.2 °F57 %30.09 in6.2 miWNW (300°)16.1 mphScattered Clouds
10:00 AM46.4 °F28.4 °F50 %30.09 in6.2 miNW (320°)13.8 mphScattered Clouds
10:30 AM46.4 °F28.4 °F50 %30.06 in6.2 miWNW (290°)13.8 mphScattered Clouds
11:00 AM48.2 °F28.4 °F46 %30.06 in6.2 miWest (280°)11.5 mphMostly Cloudy
11:30 AM48.2 °F28.4 °F46 %30.06 in6.2 miWNW (300°)6.9 mphMostly Cloudy
11:55 AM50.0 °F26.6 °F40 %30.06 in6.2 miWNW (290°)9.2 mphScattered Clouds
12:30 PM50.0 °F27.0 °F28 %30.09 in7.0 miNW (320°)8.9 mphPartly Cloudy
12:30 PM50.0 °F26.6 °F40 %30.06 in6.2 miNW (320°)9.2 mphMostly Cloudy
1:00 PM50.0 °F26.6 °F40 %30.04 in6.2 miNW (320°)13.8 mphMostly Cloudy
1:30 PM51.8 °F24.8 °F35 %30.04 in6.2 miWNW (300°)11.5 mphMostly Cloudy
1:55 PM50.0 °F24.8 °F37 %30.04 in6.2 miNW (320°)13.8 mphMostly Cloudy
2:20 PM48.2 °F24.8 °F40 %30.06 in6.2 miWNW (300°)18.4 mphMostly Cloudy
2:30 PM48.2 °F24.8 °F40 %30.06 in6.2 miWNW (300°)18.4 mphMostly Cloudy
3:00 PM50.0 °F23.0 °F35 %30.04 in6.2 miWNW (290°)11.5 mphMostly Cloudy
3:30 PM49.0 °F21.0 °F21 %30.10 in6.0 miNW (310°)17.9 mphPartly Cloudy
3:30 PM48.2 °F21.2 °F34 %30.06 in6.2 miNW (310°)18.4 mphMostly Cloudy
4:00 PM48.2 °F21.2 °F34 %30.06 in6.2 miNW (310°)13.8 mphMostly Cloudy
4:30 PM46.4 °F23.0 °F40 %30.06 in6.2 miWNW (300°)16.1 mphMostly Cloudy
4:59 PM46.4 °F23.0 °F40 %30.09 in6.2 miWNW (290°)16.1 mphScattered Clouds
5:20 PM44.6 °F24.8 °F46 %30.09 in6.2 miWNW (290°)16.1 mphScattered Clouds
6:00 PM44.6 °F24.8 °F46 %30.09 in6.2 miWNW (290°)13.8 mphPartly Cloudy
6:30 PM43.0 °F24.0 °F34 %30.16 in6.0 miWNW (290°)17.9 mphScattered Clouds
6:30 PM42.8 °F24.8 °F49 %30.12 in6.2 miWNW (290°)18.4 mphPartly Cloudy
7:00 PM42.8 °F24.8 °F49 %30.12 in6.2 miWNW (290°)16.1 mphPartly Cloudy
7:30 PM42.8 °F24.8 °F49 %30.12 in6.2 miWest (280°)9.2 mphPartly Cloudy
8:00 PM42.8 °F23.0 °F46 %30.12 in6.2 miWNW (290°)16.1 mphPartly Cloudy
8:30 PM41.0 °F24.8 °F53 %30.15 in6.2 miWNW (300°)11.5 mphScattered Clouds
8:55 PM39.2 °F23.0 °F52 %30.15 in6.2 miSE (140°)6.9 mphScattered Clouds
9:30 PM39.2 °F23.0 °F52 %30.15 in6.2 miSouth (170°)6.9 mphScattered Clouds
9:30 PM38.0 °F23.0 °F41 %30.22 in7.0 miSouth (170°)6.7 mphPartly Cloudy
9:55 PM37.4 °F23.0 °F56 %30.15 in6.2 miCalmPartly Cloudy
10:30 PM37.4 °F23.0 °F56 %30.15 in6.2 miSSW (200°)4.6 mphPartly Cloudy
10:55 PM37.4 °F21.2 °F52 %30.15 in6.2 miWest (270°)4.6 mphPartly Cloudy
11:20 PM35.6 °F21.2 °F56 %30.15 inWest (280°)4.6 mphClear
11:30 PM35.6 °F21.2 °F56 %30.15 inWest (280°)4.6 mphClear
Hourly data recorded from OIMM, located miles away from Mashhad, Iran







STORIES FROM OUR PARTNERS